Location: Unspecified
(48.2082°N, 0.0000°E)
Time: 22:24:17
(UTC+00:00)

A-11 Canister half - Pass Details

Date: 29 June 2019
Orbit: 1514 x 1686 km, 47.2° (Epoch: 21 October)

Event Time Altitude Azimuth Distance (km) Brightness Sun altitude
Rises 08:47:18 0° 228° (SW) 4,928 11.4 44.1°
Reaches altitude 10° 08:50:33 10° 224° (SW) 3,933 11.0 44.6°
Maximum altitude 09:00:17 56° 150° (SSE) 1,911 10.9 46.1°
Drops below altitude 10° 09:09:46 10° 76° (ENE) 3,836 11.8 47.6°
Sets 09:12:54 0° 72° (ENE) 4,800 12.1 48.1°
